K9MWM-1 Weather Reports


Display with metric or nautical units.
time (UTC)temp
F
wind
direction
speed
MPH
gust
MPH
rain 1hr
in
rain 24hr
in
rain mn
in
humidity
%
barometer
mb
20260508180123 73 309 0.0 6.0 0.00 0.00 0.00
20260508175610 74 343 3.0 6.0 0.00 0.00 0.00
20260508175057 73 330 0.0 6.0 0.00 0.00 0.00
20260508174545 74 345 0.0 2.0 0.00 0.00 0.00
20260508174031 74 330 0.0 6.0 0.00 0.00 0.00
20260508173519 74 333 0.0 1.0 0.00 0.00 0.00
20260508173006 74 331 0.0 2.0 0.00 0.00 0.00
20260508172453 74 324 0.0 0.0 0.00 0.00 0.00
20260508171940 74 313 0.0 3.0 0.00 0.00 0.00
20260508171427 75 316 0.0 8.0 0.00 0.00 0.00
20260508170914 76 315 0.0 3.0 0.00 0.00 0.00
20260508170402 75 228 0.0 0.0 0.00 0.00 0.00
20260508165849 75 306 0.0 0.0 0.00 0.00 0.00
20260508165336 75 247 0.0 0.0 0.00 0.00 0.00
20260508164823 74 300 0.0 0.0 0.00 0.00 0.00
20260508164310 73 292 0.0 0.0 0.00 0.00 0.00
20260508163757 72 145 0.0 0.0 0.00 0.00 0.00
20260508163244 71 189 0.0 0.0 0.00 0.00 0.00
20260508162732 71 147 0.0 0.0 0.00 0.00 0.00
20260508161153 71 333 0.0 0.0 0.00 0.00 0.00
20260508160128 70 355 0.0 0.0 0.00 0.00 0.00
20260508155615 69 316 0.0 0.0 0.00 0.00 0.00
20260508155102 68 337 0.0 0.0 0.00 0.00 0.00
20260508154549 68 142 0.0 0.0 0.00 0.00 0.00
20260508154036 68 153 0.0 0.0 0.00 0.00 0.00
20260508153523 67 183 0.0 0.0 0.00 0.00 0.00
20260508152458 67 337 0.0 0.0 0.00 0.00 0.00
20260508151945 67 150 0.0 0.0 0.00 0.00 0.00
20260508151432 67 158 0.0 0.0 0.00 0.00 0.00
20260508150919 67 173 0.0 0.0 0.00 0.00 0.00
20260508150406 67 285 0.0 0.0 0.00 0.00 0.00
20260508145853 67 326 0.0 0.0 0.00 0.00 0.00
20260508145341 65 247 0.0 0.0 0.00 0.00 0.00
20260508144828 63 168 0.0 0.0 0.00 0.00 0.00
20260508144315 62 135 0.0 0.0 0.00 0.00 0.00
20260508143802 60 135 0.0 0.0 0.00 0.00 0.00
20260508143249 58 169 0.0 0.0 0.00 0.00 0.00
20260508141711 49 261 0.0 0.0 0.00 0.00 0.00
20260508141158 48 144 0.0 0.0 0.00 0.00 0.00
20260508140645 48 162 0.0 0.0 0.00 0.00 0.00
20260508140132 47 122 0.0 0.0 0.00 0.00 0.00
20260508135619 46 135 0.0 0.0 0.00 0.00 0.00
20260508135106 46 90 0.0 0.0 0.00 0.00 0.00
20260508134554 46 129 0.0 0.0 0.00 0.00 0.00
20260508134041 46 348 0.0 0.0 0.00 0.00 0.00
20260508133528 44 116 0.0 0.0 0.00 0.00 0.00
20260508133015 41 22 0.0 0.0 0.00 0.00 0.00
20260508132502 39 348 0.0 0.0 0.00 0.00 0.00
20260508131949 37 337 0.0 0.0 0.00 0.00 0.00
20260508130924 36 337 0.0 0.0 0.00 0.00 0.00
20260508130411 36 337 0.0 0.0 0.00 0.00 0.00
20260508125858 35 337 0.0 0.0 0.00 0.00 0.00
20260508124832 35 337 0.0 0.0 0.00 0.00 0.00
20260508124319 35 337 0.0 0.0 0.00 0.00 0.00
20260508123807 35 337 0.0 0.0 0.00 0.00 0.00
20260508122741 35 337 0.0 0.0 0.00 0.00 0.00
20260508122228 35 337 0.0 0.0 0.00 0.00 0.00
20260508121715 35 191 0.0 0.0 0.00 0.00 0.00
20260508121202 35 337 0.0 0.0 0.00 0.00 0.00
20260508120649 35 337 0.0 0.0 0.00 0.00 0.00
20260508120137 35 337 0.0 0.0 0.00 0.00 0.00
20260508115624 35 91 0.0 0.0 0.00 0.00 0.00
20260508115111 36 97 0.0 0.0 0.00 0.00 0.00
20260508114558 36 22 0.0 0.0 0.00 0.00 0.00
20260508114045 36 95 0.0 0.0 0.00 0.00 0.00
20260508113533 36 93 0.0 0.0 0.00 0.00 0.00
20260508113020 36 232 0.0 0.0 0.00 0.00 0.00
20260508112507 36 112 0.0 0.0 0.00 0.00 0.00
20260508111954 36 337 0.0 0.0 0.00 0.00 0.00
20260508111441 36 21 0.0 0.0 0.00 0.00 0.00
20260508110928 36 315 0.0 0.0 0.00 0.00 0.00
20260508110415 36 337 0.0 0.0 0.00 0.00 0.00
20260508105902 36 157 0.0 0.0 0.00 0.00 0.00
20260508105350 36 315 0.0 0.0 0.00 0.00 0.00
20260508104837 36 337 0.0 0.0 0.00 0.00 0.00
20260508104324 36 292 0.0 0.0 0.00 0.00 0.00
20260508103811 37 93 0.0 0.0 0.00 0.00 0.00
20260508103258 37 90 0.0 0.0 0.00 0.00 0.00
20260508102745 37 112 0.0 0.0 0.00 0.00 0.00
20260508102232 37 90 0.0 0.0 0.00 0.00 0.00
20260508101719 37 270 0.0 0.0 0.00 0.00 0.00
20260508101207 37 180 0.0 0.0 0.00 0.00 0.00
20260508100654 38 90 0.0 0.0 0.00 0.00 0.00
20260508100141 39 315 0.0 0.0 0.00 0.00 0.00
20260508095628 39 90 0.0 0.0 0.00 0.00 0.00
20260508095115 39 337 0.0 0.0 0.00 0.00 0.00
20260508094603 40 91 0.0 0.0 0.00 0.00 0.00
20260508094050 40 67 0.0 0.0 0.00 0.00 0.00
20260508093537 40 337 0.0 0.0 0.00 0.00 0.00
20260508093024 40 95 0.0 0.0 0.00 0.00 0.00
20260508092511 40 337 0.0 0.0 0.00 0.00 0.00
20260508091445 40 337 0.0 0.0 0.00 0.00 0.00
20260508090933 40 69 0.0 0.0 0.00 0.00 0.00
20260508090420 40 236 0.0 0.0 0.00 0.00 0.00
20260508085907 40 191 0.0 0.0 0.00 0.00 0.00
20260508085354 40 187 0.0 0.0 0.00 0.00 0.00
20260508084841 40 337 0.0 0.0 0.00 0.00 0.00
20260508084328 40 337 0.0 0.0 0.00 0.00 0.00
20260508083816 40 292 0.0 0.0 0.00 0.00 0.00
20260508083303 40 337 0.0 0.0 0.00 0.00 0.00
20260508082750 40 337 0.0 0.0 0.00 0.00 0.00
20260508082237 40 337 0.0 0.0 0.00 0.00 0.00
20260508081724 41 337 0.0 0.0 0.00 0.00 0.00
20260508081211 41 22 0.0 0.0 0.00 0.00 0.00
20260508080658 41 337 0.0 0.0 0.00 0.00 0.00
20260508080146 42 90 0.0 0.0 0.00 0.00 0.00
20260508075633 42 175 0.0 0.0 0.00 0.00 0.00
20260508075120 42 22 0.0 0.0 0.00 0.00 0.00
20260508074055 43 90 0.0 0.0 0.00 0.00 0.00
20260508073541 43 90 0.0 0.0 0.00 0.00 0.00
20260508073029 43 337 0.0 0.0 0.00 0.00 0.00
20260508072516 43 337 0.0 0.0 0.00 0.00 0.00
20260508072003 44 0 0.0 0.0 0.00 0.00 0.00
20260508071450 44 157 0.0 0.0 0.00 0.00 0.00
20260508070937 44 135 0.0 0.0 0.00 0.00 0.00
20260508065911 45 337 0.0 0.0 0.00 0.00 0.00
20260508065359 45 281 0.0 0.0 0.00 0.00 0.00
20260508064846 45 22 0.0 0.0 0.00 0.00 0.00
20260508064333 46 78 0.0 0.0 0.00 0.00 0.00
20260508063820 46 337 0.0 0.0 0.00 0.00 0.00
20260508063307 46 337 0.0 0.0 0.00 0.00 0.00
20260508062755 47 337 0.0 0.0 0.00 0.00 0.00
20260508062242 47 157 0.0 0.0 0.00 0.00 0.00
20260508061729 48 157 0.0 0.0 0.00 0.00 0.00
20260508060703 49 311 0.0 0.0 0.00 0.00 0.00
20260508060150 49 0 0.0 0.0 0.00 0.00 0.00
20260508055637 49 337 0.0 0.0 0.00 0.00 0.00
20260508055124 49 270 0.0 0.0 0.00 0.00 0.00
20260508054612 49 140 0.0 0.0 0.00 0.00 0.00
20260508054059 49 91 0.0 0.0 0.00 0.00 0.00
20260508053546 49 337 0.0 0.0 0.00 0.00 0.00
20260508053033 49 94 0.0 0.0 0.00 0.00 0.00
20260508052520 49 90 0.0 0.0 0.00 0.00 0.00
20260508052008 49 337 0.0 0.0 0.00 0.00 0.00
20260508051455 49 180 0.0 0.0 0.00 0.00 0.00
20260508050942 49 202 0.0 0.0 0.00 0.00 0.00
20260508050429 49 97 0.0 0.0 0.00 0.00 0.00
20260508045916 49 4 0.0 0.0 0.00 0.00 0.00
20260508045403 49 340 0.0 0.0 0.00 0.00 0.00
20260508044850 50 65 0.0 0.0 0.00 0.00 0.00
20260508044337 50 337 0.0 0.0 0.00 0.00 0.00
20260508043825 50 112 0.0 0.0 0.00 0.00 0.00
20260508043312 50 6 0.0 0.0 0.00 0.00 0.00
20260508042759 50 189 0.0 0.0 0.00 0.00 0.00
20260508042246 50 337 0.0 0.0 0.00 0.00 0.00
20260508041733 50 335 0.0 0.0 0.00 0.00 0.00
20260508040707 50 337 0.0 0.0 0.00 0.00 0.00
20260508040155 50 90 0.0 0.0 0.00 0.00 0.00
20260508035643 50 225 0.0 0.0 0.00 0.00 0.00
20260508035129 50 337 0.0 0.0 0.00 0.00 0.00
20260508034616 50 337 0.0 0.0 0.00 0.00 0.00
20260508034103 51 225 0.0 0.0 0.00 0.00 0.00
20260508033550 51 337 0.0 0.0 0.00 0.00 0.00
20260508033038 52 112 0.0 0.0 0.00 0.00 0.00
20260508032525 52 92 0.0 0.0 0.00 0.00 0.00
20260508032012 52 337 0.0 0.0 0.00 0.00 0.00
20260508031459 52 337 0.0 0.0 0.00 0.00 0.00
20260508030946 53 15 0.0 0.0 0.00 0.00 0.00
20260508025920 53 168 0.0 0.0 0.00 0.00 0.00
20260508024855 53 337 0.0 0.0 0.00 0.00 0.00
20260508024342 54 67 0.0 0.0 0.00 0.00 0.00
20260508023829 54 67 0.0 0.0 0.00 0.00 0.00
20260508023316 53 337 0.0 0.0 0.00 0.00 0.00
20260508022803 54 337 0.0 0.0 0.00 0.00 0.00
20260508021225 55 33 0.0 0.0 0.00 0.00 0.00
20260508020712 55 60 0.0 0.0 0.00 0.00 0.00
20260508015646 56 337 0.0 0.0 0.00 0.00 0.00
20260508015133 57 90 0.0 0.0 0.00 0.00 0.00
20260508014621 57 309 0.0 0.0 0.00 0.00 0.00
20260508014108 57 278 0.0 0.0 0.00 0.00 0.00
20260508013555 58 303 0.0 0.0 0.00 0.00 0.00
20260508013042 58 323 0.0 0.0 0.00 0.00 0.00
20260508012529 58 333 0.0 0.0 0.00 0.00 0.00
20260508012017 58 322 0.0 0.0 0.00 0.00 0.00
20260508011504 59 324 0.0 0.0 0.00 0.00 0.00
20260508010951 59 322 0.0 0.0 0.00 0.00 0.00
20260508010438 59 319 0.0 0.0 0.00 0.00 0.00
20260508005925 59 320 0.0 0.0 0.00 0.00 0.00
20260508005412 60 332 0.0 0.0 0.00 0.00 0.00
20260508004859 60 332 0.0 0.0 0.00 0.00 0.00
20260508003834 61 292 0.0 0.0 0.00 0.00 0.00
20260508003321 62 60 0.0 0.0 0.00 0.00 0.00
20260508002808 62 112 0.0 0.0 0.00 0.00 0.00
20260508002255 63 345 0.0 0.0 0.00 0.00 0.00
20260508001742 63 333 0.0 0.0 0.00 0.00 0.00
20260508001229 63 336 0.0 0.0 0.00 0.00 0.00
20260508000717 64 345 0.0 0.0 0.00 0.00 0.00
20260508000205 64 329 0.0 1.0 0.00 0.00 0.00
20260507235651 64 345 0.0 0.0 0.00 0.00 0.00
20260507235138 65 343 0.0 0.0 0.00 0.00 0.00
20260507234625 65 329 0.0 0.0 0.00 0.00 0.00
20260507234112 66 327 0.0 0.0 0.00 0.00 0.00
20260507233559 66 337 0.0 0.0 0.00 0.00 0.00
20260507232534 67 339 0.0 0.0 0.00 0.00 0.00
20260507232021 67 311 0.0 1.0 0.00 0.00 0.00
20260507231509 67 324 0.0 1.0 0.00 0.00 0.00
20260507230955 67 318 0.0 0.0 0.00 0.00 0.00
20260507230443 68 319 0.0 2.0 0.00 0.00 0.00
20260507225930 70 334 0.0 1.0 0.00 0.00 0.00
20260507225417 71 334 0.0 0.0 0.00 0.00 0.00
20260507224905 72 346 0.0 0.0 0.00 0.00 0.00
20260507223839 72 336 0.0 3.0 0.00 0.00 0.00
20260507222813 70 333 0.0 0.0 0.00 0.00 0.00
20260507222305 69 332 0.0 0.0 0.00 0.00 0.00
20260507221748 69 323 0.0 0.0 0.00 0.00 0.00
20260507221235 69 325 0.0 0.0 0.00 0.00 0.00
20260507220723 70 319 0.0 3.0 0.00 0.00 0.00
20260507220209 71 329 0.0 7.0 0.00 0.00 0.00
20260507215143 69 332 0.0 6.0 0.00 0.00 0.00
20260507214630 68 157 0.0 0.0 0.00 0.00 0.00
20260507214117 68 357 0.0 1.0 0.00 0.00 0.00
20260507213604 68 354 0.0 0.0 0.00 0.00 0.00
20260507213052 69 335 0.0 0.0 0.00 0.00 0.00
20260507212538 70 347 0.0 0.0 0.00 0.00 0.00
20260507212026 70 298 0.0 0.0 0.00 0.00 0.00
20260507211000 71 327 0.0 0.0 0.00 0.00 0.00
20260507210447 70 342 0.0 0.0 0.00 0.00 0.00
20260507205934 69 327 0.0 0.0 0.00 0.00 0.00
20260507204356 67 315 0.0 5.0 0.00 0.00 0.00
20260507203843 67 315 0.0 5.0 0.00 0.00 0.00
20260507203330 67 319 1.0 7.0 0.00 0.00 0.00
20260507202817 67 325 0.0 5.0 0.00 0.00 0.00
20260507202306 67 326 1.0 3.0 0.00 0.00 0.00
20260507201752 67 326 0.0 8.0 0.00 0.00 0.00
20260507201239 67 326 0.0 1.0 0.00 0.00 0.00
20260507200213 66 313 0.0 3.0 0.00 0.00 0.00
20260507195700 66 315 0.0 1.0 0.00 0.00 0.00
20260507195149 66 322 0.0 4.0 0.00 0.00 0.00
20260507194634 65 320 0.0 3.0 0.00 0.00 0.00
20260507194123 65 332 0.0 0.0 0.00 0.00 0.00
20260507193609 64 325 0.0 7.0 0.00 0.00 0.00
20260507193056 63 315 0.0 7.0 0.00 0.00 0.00
20260507192544 63 315 0.0 3.0 0.00 0.00 0.00
20260507192030 63 321 2.0 5.0 0.00 0.00 0.00
20260507191517 62 330 0.0 2.0 0.00 0.00 0.00
20260507191005 62 337 0.0 5.0 0.00 0.00 0.00
20260507190452 61 332 0.0 1.0 0.00 0.00 0.00
20260507185939 61 340 0.0 1.0 0.00 0.00 0.00
20260507185426 60 325 0.0 1.0 0.00 0.00 0.00
20260507184913 58 328 0.0 3.0 0.00 0.00 0.00
20260507184400 58 318 0.0 5.0 0.00 0.00 0.00
20260507183847 58 315 0.0 4.0 0.00 0.00 0.00
20260507183335 58 319 0.0 5.0 0.00 0.00 0.00
20260507182822 58 319 1.0 4.0 0.00 0.00 0.00
20260507182309 58 315 0.0 7.0 0.00 0.00 0.00
20260507181756 58 324 1.0 6.0 0.00 0.00 0.00
20260507181243 58 323 0.0 3.0 0.00 0.00 0.00
20260507180730 58 323 2.0 4.0 0.00 0.00 0.00